Powrót do katalogu

FENGYUN 1C DEB

AktywnySSO
NORAD 30052·DEBRIS·🇨🇳 China

Wystrzelony May 10, 1999 z Taiyuan Satellite Launch Center

Loading…

Następne Przeloty (najbliższe 24 godziny)

TLE

ŚwieżeSource: Space-Track

Epoka: Sep 14, 2026, 07:58 UTC

1 30052U 99025PD  26257.33260447  .00000310  00000-0  28371-3 0  9994
2 30052  99.2776 280.1131 0288057 229.7479 141.7941 13.73253339983374

Śledź FENGYUN 1C DEB w czasie rzeczywistym z AllMySat

Download on the App Store